Location: Unspecified
(0.0000°N, 0.0000°E)
Time: 18:32:26
(UTC+00:00)

Vanguard 3 - Pass Details

Date: 08 December 2017
Orbit: 508 x 3264 km, 33.3° (Epoch: 23 June)

Event Time Altitude Azimuth Distance (km) Brightness Sun altitude
Exits shadow 23:36:54 39° 167° (SSE) 4,119 10.6 -66.9°
Drops below altitude 10° 23:49:06 10° 140° (SE) 6,201 11.8 -67.2°
Sets 23:54:14 0° 135° (SE) 7,151 12.2 -67.2°
